This demonstration page uses our WeatherBlox Daily Observations layout. Learn more.

Left ArrowRight Arrow

Hourly Observations for May 14, 2020

Temp ( °F °C ) Dew Point ( °F °C ) Humidity (%) Winds ( mph kmh ) Pressure ( in mb ) Visibility ( mi km ) Precip ( " mm )
12:16 am 00:16 Cloudy 55 12.8 49 9.4 80 80 VRB 3 6 30.18 1022 10 16.0934 N/A
12:50 am 00:50 Cloudy 55 13 50 10 82 82 VRB 5 7 30.18 1022 10 16.0934 N/A
12:53 am 00:53 Cloudy 55 12.8 50 10 83 83 VRB 5 7 30.18 1022 10 16.0934 N/A
1:53 am 01:53 Cloudy 55 12.8 51 10.6 87 87 N N/A 30.17 1022 10 16.0934 N/A
2:07 am 02:07 Cloudy 55 12.8 51 10.6 87 87 VRB 3 6 30.17 1022 10 16.0934 N/A
2:51 am 02:51 Cloudy 55 13 52 11 88 88 N N/A 30.16 1021 10 16.0934 N/A
2:53 am 02:53 Cloudy 55 12.8 51 10.6 87 87 N N/A 30.15 1021 10 16.0934 N/A
3:18 am 03:18 Cloudy 55 12.8 51 10.6 87 87 N N/A 30.15 1021 10 16.0934 N/A
3:33 am 03:33 Cloudy 55 12.8 51 10.6 87 87 N N/A 30.14 1021 10 16.0934 N/A
3:53 am 03:53 Cloudy 55 12.8 51 10.6 87 87 N N/A 30.14 1021 10 16.0934 N/A
4:16 am 04:16 Cloudy 55 12.8 51 10.6 87 87 SSE 3 6 30.14 1021 10 16.0934 N/A
4:27 am 04:27 Cloudy 55 12.8 51 10.6 87 87 N N/A 30.14 1021 10 16.0934 N/A
4:53 am 04:53 Cloudy 55 12.8 51 10.6 87 87 N N/A 30.14 1021 10 16.0934 N/A
5:53 am 05:53 Partly Cloudy 55 12.8 51 10.6 87 87 N N/A 30.13 1020 10 16.0934 N/A
6:53 am 06:53 Mostly Cloudy 55 12.8 51 10.6 87 87 N N/A 30.14 1021 10 16.0934 N/A
7:53 am 07:53 Cloudy with Light Rain 56 13.3 52 11.1 87 87 N N/A 30.15 1021 10 16.0934 0.001 0.001
8:53 am 08:53 Partly Cloudy 61 16.1 55 12.8 81 81 N N/A 30.13 1020 10 16.0934 0.001 0.001
9:53 am 09:53 Mostly Cloudy 64 17.8 56 13.3 75 75 SW 3 6 30.14 1021 10 16.0934 0.001 0.001
10:53 am 10:53 Mostly Cloudy 67 19.4 58 14.4 73 73 VRB 6 9 30.12 1020 10 16.0934 0.001 0.001
11:10 am 11:10 Mostly Cloudy with Heavy Rain 62 16.7 58 14.4 86 86 WSW 9 15 30.13 1020 1.5 2.41401 0.05 1.27
11:23 am 11:23 Cloudy with Light Rain 61 16.1 58 14.4 90 90 SW 7 11 30.12 1020 2 3.21868 0.1 2.54
11:51 am 11:51 Cloudy with Rain 61 16 59 15 94 94 VRB 3 6 30.1 1019 3 4.82802 0.17 4.318
11:53 am 11:53 Cloudy with Light Rain 61 16.1 59 15 93 93 N N/A 30.11 1020 3 4.82802 0.17 4.318
12:53 pm 12:53 Mostly Cloudy 65 18.3 62 16.7 90 90 VRB 5 7 30.08 1019 10 16.0934 0.001 0.001
1:53 pm 13:53 Sunny 73 22.8 63 17.2 71 71 VRB 5 7 30.06 1018 10 16.0934 N/A
2:53 pm 14:53 Mostly Sunny 78 25.6 63 17.2 60 60 SSW 9 15 30.03 1017 10 16.0934 N/A
3:53 pm 15:53 Mostly Sunny 77 25 61 16.1 58 58 SW 10 17 30.03 1017 10 16.0934 N/A
4:53 pm 16:53 Partly Cloudy 79 26.1 61 16.1 54 54 WSW 10 17 30.01 1016 10 16.0934 N/A
5:15 pm 17:15 Mostly Cloudy with Nearby Thunderstorms 79 26.1 61 16.1 54 54 VRB 6 9 29.99 1016 10 16.0934 N/A
5:30 pm 17:30 Mostly Cloudy 78 25.6 61 16.1 56 56 W 7 11 30 1016 10 16.0934 N/A
5:53 pm 17:53 Cloudy 71 21.7 58 14.4 63 63 WNW 7 11 30.02 1017 10 16.0934 N/A
6:53 pm 18:53 Sunny 72 22.2 59 15 64 64 N N/A 29.99 1016 10 16.0934 N/A
7:53 pm 19:53 Sunny 72 22.2 59 15 64 64 N N/A 29.96 1015 10 16.0934 N/A
8:53 pm 20:53 Clear 64 17.8 60 15.6 87 87 N N/A 29.97 1015 10 16.0934 N/A
9:53 pm 21:53 Clear 70 21.1 57 13.9 64 64 VRB 5 7 29.96 1015 10 16.0934 N/A
10:53 pm 22:53 Clear 73 22.8 57 13.9 57 57 VRB 5 7 29.96 1015 10 16.0934 N/A
11:53 pm 23:53 Clear 72 22.2 57 13.9 59 59 VRB 5 7 29.96 1015 10 16.0934 N/A

Powered by AerisWeather